Simultaneous Nadir Overpasses (SNOs) Predictions

Prediction of SNOs between NOAA-20 and LANDSAT-8 Satellite Orbit:

Table of predicted SNOs for the next 14.0 days since TLE Epoch: 10/31/2020
Index Date (NOAA-20) Time (NOAA-20) Lat,Lon (NOAA-20) SZA (NOAA-20 ) Date (LANDSAT-8) Time (LANDSAT-8) Lat,Lon (LANDSAT-8) SZA (LANDSAT-8 ) Distance(km) Time Diff (sec)
1 11/02/2020 07:22:43 70.07, 65.55 84.88 11/02/2020 07:23:26 70.06, 65.62 84.88 2.87 43
2 11/02/2020 08:13:24 -69.92,-126.91 95.26 11/02/2020 08:12:56 -69.94,-126.91 95.24 2.67 28
3 11/04/2020 22:49:09 -70.88, 12.72 93.49 11/04/2020 22:50:16 -70.79, 14.94 93.57 81.79 67
4 11/04/2020 23:39:38 69.98,-178.55 85.62 11/04/2020 23:39:56 69.98,-178.61 85.62 2.01 18
5 11/05/2020 00:30:20 -69.89, -11.09 94.47 11/05/2020 00:29:26 -69.87, -11.13 94.49 2.44 54
6 11/07/2020 15:05:50 -70.06, 129.79 93.52 11/07/2020 15:06:58 -70.06, 129.74 93.52 1.77 68
7 11/07/2020 15:56:34 69.95, -62.74 86.39 11/07/2020 15:56:25 69.95, -62.77 86.38 0.90 9
8 11/07/2020 16:47:11 -69.59, 105.11 93.97 11/07/2020 16:45:59 -69.62, 104.41 93.94 27.44 72
9 11/10/2020 07:22:45 -70.03,-114.40 92.79 11/10/2020 07:23:26 -70.03,-114.42 92.79 0.78 41
10 11/10/2020 08:13:29 69.92, 53.07 87.12 11/10/2020 08:12:53 69.92, 53.07 87.11 0.70 36
11 11/12/2020 22:49:08 70.58,-166.81 88.49 11/12/2020 22:50:18 70.48,-165.52 88.39 49.35 70
12 11/12/2020 23:39:41 -70.00, 1.41 92.09 11/12/2020 23:39:55 -69.99, 1.41 92.10 1.10 14
13 11/13/2020 00:30:25 69.90, 168.87 87.82 11/13/2020 00:29:22 69.88, 168.90 87.80 2.35 63
